Home > Weather > Salisbury > Past weeks

Flag for United Kingdom Past Weather in Salisbury, England, United Kingdom — Yesterday and Last 2 Weeks

Now
63 °F

Rain. Overcast.


Feels Like: 63 °F
Forecast: 53 / 73 °F
Wind: 8 mph from North

Location: Boscombe Down

Current Time: Aug 25, 2016 at 4:02:06 AM

Latest Report: Aug 25, 2016 at 2:50 AM


Visibility: 3 mi

Pressure: 30.04 "Hg

Humidity: 94%

Dew Point: 61 °F

Location of SalisburyLocation

Past Weather in Salisbury — Graph

°F

Salisbury Temperature Yesterday

Maximum temperature yesterday: 82 °F (at 2:50 PM)
Minimum temperature yesterday: 59 °F (at 6:50 AM)
Average temperature yesterday: 70 °F

High & Low Weather Summary for the Past Weeks

 TemperatureHumidityPressure
High82 °F (Aug 24, 2:50 PM)100% (Aug 12, 3:50 AM)30.30 "Hg (Aug 12, 3:50 AM)
Low50 °F (Aug 10, 2:50 AM)39% (Aug 15, 3:50 PM)29.62 "Hg (Aug 19, 5:50 PM)
Average63 °F77%30.07 "Hg
* Reported Aug 10 2:50 AM — Aug 25 2:50 AM, Salisbury, Weather by CustomWeather, © 2016

Note: Actual official high and low records may vary slightly from our data, if they occured in-between our weather recording intervals... More about our weather records

Advertising

Salisbury Weather History for the Previous 24 Hours

Scroll right to see more
 ConditionsComfort  
Time TempWeatherWind HumidityBarometerVisibility
2:50 AM
Thu, Aug 25
63 °FRain. Overcast.8 mph94%30.04 "Hg3 mi
1:50 AM63 °FSprinkles. Passing clouds.9 mph94%30.07 "Hg4 mi
12:50 AM64 °FFog.12 mph94%30.04 "Hg4 mi
11:50 PM
Wed, Aug 24
66 °FPassing clouds.9 mph88%30.04 "HgN/A
10:50 PM66 °FPassing clouds.6 mph94%30.04 "HgN/A
9:50 PM68 °FPassing clouds.5 mph88%30.07 "HgN/A
8:50 PM68 °FLight rain. Overcast.5 mph88%30.07 "HgN/A
7:50 PM70 °FSprinkles. Overcast.7 mph78%30.07 "HgN/A
6:50 PM73 °FBroken clouds.10 mph69%30.04 "HgN/A
5:50 PM75 °FScattered clouds.12 mph65%30.07 "HgN/A
4:50 PM77 °FSunny.13 mph61%30.09 "Hg10 mi
3:50 PM82 °FSunny.12 mph51%30.07 "Hg10 mi
2:50 PM82 °FSunny.7 mph48%30.07 "Hg10 mi
1:50 PM81 °FSunny.7 mph51%30.07 "Hg10 mi
12:50 PM79 °FSunny.7 mph58%30.07 "Hg10 mi
11:50 AM77 °FSunny.8 mph57%30.07 "Hg10 mi
10:50 AM73 °FSunny.10 mph65%30.09 "Hg10 mi
9:50 AM72 °FSunny.9 mph73%30.09 "Hg10 mi
8:50 AM68 °FSunny.9 mph83%30.09 "Hg10 mi
7:50 AM63 °FSunny.10 mph88%30.09 "Hg10 mi
6:50 AM59 °FClear.7 mph100%30.07 "Hg10 mi
5:50 AM61 °FOvercast.7 mph88%30.07 "HgN/A
4:50 AM61 °FOvercast.8 mph88%30.07 "HgN/A
Weather by CustomWeather, © 2016

See weather overviewHow to use our weather pages